Location: Dugenta
(41.1333°N, 14.4500°E)
Time: 10:11:46
(UTC+00:00)

Sich 1 - Pass Details

Date: 03 March 2021
Orbit: 593 x 626 km, 82.5° (Epoch: 21 April)

Event Time Altitude Azimuth Distance (km) Brightness Sun altitude
Rises 17:26:07 0° 200° (SSW) 2,867 6.8 -6.6°
Reaches altitude 10° 17:28:23 10° 205° (SSW) 1,972 6.0 -7.0°
Maximum altitude 17:32:37 49° 281° (W) 803 4.2 -7.8°
Drops below altitude 10° 17:36:56 10° 357° (N) 2,003 5.7 -8.6°
Sets 17:39:15 0° 3° (N) 2,917 6.5 -9.0°
